This demonstration page uses our WeatherBlox Daily Observations layout. Learn more.

Left ArrowRight Arrow

Hourly Observations for May 22, 2019

Temp ( °F °C ) Dew Point ( °F °C ) Humidity (%) Winds ( mph kmh ) Pressure ( in mb ) Visibility ( mi km ) Precip ( " mm )
12:15 am 00:15 Clear 55 13 50 10 82 82 ESE 14 22 29.95 1014 10 16.0934 N/A
12:35 am 00:35 Clear 55 13 50 10 82 82 ESE 16 26 29.94 1014 10 16.0934 N/A
12:55 am 00:55 Clear 57 14 50 10 77 77 ESE 15 24 29.93 1013 10 16.0934 N/A
1:15 am 01:15 Clear 57 14 50 10 77 77 SE 14 22 29.94 1014 10 16.0934 N/A
1:35 am 01:35 Clear 57 14 52 11 82 82 SE 10 17 29.96 1014 10 16.0934 N/A
1:55 am 01:55 Clear 57 14 52 11 82 82 SE 10 17 29.95 1014 10 16.0934 N/A
2:15 am 02:15 Clear 57 14 52 11 82 82 SE 14 22 29.94 1014 10 16.0934 N/A
2:35 am 02:35 Clear 57 14 52 11 82 82 SE 13 20 29.94 1014 10 16.0934 N/A
2:55 am 02:55 Clear 57 14 52 11 82 82 SE 12 19 29.94 1014 10 16.0934 N/A
3:16 am 03:16 Clear 57 14 52 11 82 82 SE 14 22 29.91 1013 10 16.0934 N/A
3:35 am 03:35 Partly Cloudy 57 14 52 11 82 82 SE 16 26 29.89 1012 10 16.0934 N/A
3:55 am 03:55 Partly Cloudy 57 14 54 12 88 88 SE 15 24 29.89 1012 10 16.0934 N/A
4:15 am 04:15 Clear 57 14 54 12 88 88 SE 18 30 29.89 1012 10 16.0934 N/A
4:35 am 04:35 Partly Cloudy 59 15 54 12 82 82 SE 17 28 29.89 1012 10 16.0934 N/A
4:55 am 04:55 Partly Cloudy 59 15 54 12 82 82 SE 14 22 29.89 1012 10 16.0934 N/A
5:17 am 05:17 Mostly Cloudy 59 15 54 12 82 82 SE 13 20 29.87 1012 10 16.0934 N/A
5:36 am 05:36 Partly Cloudy 59 15 55 13 88 88 SSW 8 13 29.91 1013 10 16.0934 N/A
5:55 am 05:55 Partly Cloudy 57 14 55 13 94 94 WSW 8 13 29.94 1014 10 16.0934 N/A
6:15 am 06:15 Partly Cloudy 57 14 55 13 94 94 WNW 7 11 29.96 1014 10 16.0934 N/A
6:35 am 06:35 Mostly Cloudy 55 13 55 13 100 100 N N/A 29.94 1014 10 16.0934 N/A
6:55 am 06:55 Mostly Cloudy 55 13 55 13 100 100 N N/A 29.95 1014 10 16.0934 N/A
7:15 am 07:15 Cloudy 55 13 55 13 100 100 ENE 5 7 29.96 1015 10 16.0934 N/A
7:35 am 07:35 Cloudy 57 14 57 14 100 100 N N/A 29.97 1015 10 16.0934 N/A
7:55 am 07:55 Cloudy 55 13 55 13 100 100 E 7 11 29.96 1015 10 16.0934 N/A
8:15 am 08:15 Cloudy 57 14 57 14 100 100 WNW 3 6 29.99 1015 7 11.26538 N/A
8:35 am 08:35 Cloudy 55 13 55 13 100 100 N N/A 29.99 1016 7 11.26538 N/A
8:55 am 08:55 Cloudy 55 13 55 13 100 100 N N/A 29.98 1015 10 16.0934 N/A
9:15 am 09:15 Cloudy 57 14 57 14 100 100 N N/A 29.99 1015 10 16.0934 N/A
9:35 am 09:35 Cloudy 57 14 57 14 100 100 E 5 7 29.99 1015 10 16.0934 N/A
9:56 am 09:56 Cloudy 57 14 57 14 100 100 ESE 7 11 29.97 1015 10 16.0934 N/A
10:15 am 10:15 Cloudy 59 15 59 15 100 100 SE 7 11 29.95 1014 10 16.0934 N/A
10:35 am 10:35 Cloudy 59 15 59 15 100 100 SE 6 9 29.97 1015 5 8.0467 N/A
10:55 am 10:55 Cloudy 59 15 59 15 100 100 SSE 6 9 29.98 1015 1.75 2.816345 N/A
11:15 am 11:15 Cloudy 57 14 57 14 100 100 SSE 9 15 30.01 1016 4 6.43736 N/A
11:36 am 11:36 Cloudy 59 15 59 15 100 100 SSE 8 13 30 1016 5 8.0467 N/A
11:55 am 11:55 Cloudy 59 15 59 15 100 100 SSE 7 11 30 1016 5 8.0467 N/A
12:15 pm 12:15 Cloudy 61 16 61 16 100 100 S 7 11 30 1016 4 6.43736 N/A
12:35 pm 12:35 Cloudy 61 16 61 16 100 100 S 10 17 30.01 1016 10 16.0934 N/A
12:55 pm 12:55 Mostly Cloudy 64 18 64 18 100 100 S 9 15 29.99 1016 10 16.0934 N/A
1:16 pm 13:16 Partly Cloudy 64 18 64 18 100 100 S 13 20 29.99 1016 10 16.0934 N/A
1:35 pm 13:35 Partly Cloudy 68 20 66 19 94 94 S 10 17 29.98 1015 10 16.0934 N/A
1:55 pm 13:55 Partly Cloudy 66 19 66 19 100 100 S 12 19 29.98 1015 10 16.0934 N/A
2:15 pm 14:15 Partly Cloudy 68 20 66 19 94 94 S 10 17 29.98 1015 10 16.0934 N/A
2:35 pm 14:35 Mostly Cloudy 68 20 68 20 100 100 S 12 19 29.99 1016 10 16.0934 N/A
2:55 pm 14:55 Cloudy 68 20 68 20 100 100 SSW 10 17 29.99 1016 10 16.0934 N/A
3:16 pm 15:16 Cloudy 70 21 68 20 94 94 S 14 22 29.99 1015 10 16.0934 N/A
3:35 pm 15:35 Mostly Cloudy 70 21 70 21 100 100 S 13 20 29.99 1015 10 16.0934 N/A
3:56 pm 15:56 Mostly Cloudy 70 21 70 21 100 100 S 12 19 29.99 1015 10 16.0934 N/A
4:15 pm 16:15 Cloudy 72 22 70 21 94 94 S 10 17 29.98 1015 10 16.0934 N/A
4:35 pm 16:35 Cloudy 72 22 70 21 94 94 SSW 9 15 29.98 1015 10 16.0934 N/A
4:55 pm 16:55 Mostly Cloudy 73 23 72 22 94 94 SSW 10 17 29.98 1015 10 16.0934 N/A
5:15 pm 17:15 Mostly Cloudy 72 22 70 21 94 94 S 9 15 29.98 1015 10 16.0934 N/A
5:35 pm 17:35 Partly Cloudy 73 23 70 21 89 89 S 10 17 29.98 1015 10 16.0934 N/A
5:55 pm 17:55 Sunny 73 23 70 21 89 89 S 12 19 29.98 1015 10 16.0934 N/A
6:15 pm 18:15 Sunny 72 22 70 21 94 94 S 9 15 29.98 1015 10 16.0934 N/A
6:35 pm 18:35 Sunny 72 22 70 21 94 94 SSW 8 13 29.98 1015 10 16.0934 N/A
6:56 pm 18:56 Sunny 73 23 70 21 89 89 S 10 17 29.98 1015 10 16.0934 N/A
7:15 pm 19:15 Sunny 73 23 70 21 89 89 S 10 17 29.98 1015 10 16.0934 N/A
7:35 pm 19:35 Sunny 73 23 70 21 89 89 undefined N/A 29.98 1015 10 16.0934 N/A
7:55 pm 19:55 Sunny 72 22 70 21 94 94 S 7 11 29.98 1015 10 16.0934 N/A
8:15 pm 20:15 Sunny 72 22 70 21 94 94 S 7 11 29.98 1015 10 16.0934 N/A
8:35 pm 20:35 Sunny 72 22 70 21 94 94 S 5 7 29.99 1016 10 16.0934 N/A
8:55 pm 20:55 Sunny 70 21 70 21 100 100 S 3 6 30 1016 10 16.0934 N/A
9:15 pm 21:15 Clear 70 21 70 21 100 100 S 3 6 30 1016 10 16.0934 N/A
9:35 pm 21:35 Clear 66 19 66 19 100 100 S 3 6 30 1016 10 16.0934 N/A
9:55 pm 21:55 Clear 66 19 66 19 100 100 SSE 6 9 30 1016 10 16.0934 N/A
10:15 pm 22:15 Clear 66 19 66 19 100 100 SSE 6 9 29.99 1016 10 16.0934 N/A
10:35 pm 22:35 Clear 66 19 66 19 100 100 S 5 7 30 1016 10 16.0934 N/A
10:55 pm 22:55 Clear 66 19 66 19 100 100 S 5 7 30 1016 10 16.0934 N/A
11:16 pm 23:16 Clear 66 19 66 19 100 100 S 5 7 30 1016 10 16.0934 N/A
11:35 pm 23:35 Clear 64 18 64 18 100 100 SSE 5 7 30 1016 10 16.0934 N/A
11:55 pm 23:55 Clear 66 19 66 19 100 100 S 5 7 30 1016 10 16.0934 N/A

Powered by AerisWeather